DW8534 Weather Reports


Display with metric or nautical units.
time (UTC)temp
F
wind
direction
speed
MPH
gust
MPH
rain 1hr
in
rain 24hr
in
rain mn
in
humidity
%
barometer
mb
20260507141538 57 360 1.0 0.0 0.00 0.00 0.00 85 1016.4
20260507140042 56 46 2.0 0.0 0.00 0.00 0.00 87 1016.3
20260507134538 56 5 1.0 0.0 0.00 0.00 0.00 89 1016.3
20260507133041 55 5 0.0 0.0 0.00 0.00 0.00 91 1016.5
20260507131539 55 355 0.0 0.0 0.00 0.00 0.00 92 1016.6
20260507130041 54 355 0.0 0.0 0.00 0.00 0.00 92 1016.7
20260507124540 54 355 0.0 0.0 0.00 0.00 0.00 92 1016.6
20260507123035 53 355 0.0 0.0 0.00 0.00 0.00 92 1016.6
20260507121534 52 91 0.0 0.0 0.00 0.00 0.00 91 1016.7
20260507120033 52 80 0.0 0.0 0.00 0.00 0.00 91 1016.7
20260507114554 52 34 0.0 0.0 0.00 0.00 0.00 91 1016.6
20260507113057 52 34 0.0 0.0 0.00 0.00 0.00 90 1016.2
20260507111538 53 34 0.0 0.0 0.00 0.00 0.00 91 1016.0
20260507110029 53 33 0.0 0.0 0.00 0.00 0.00 91 1015.6
20260507104538 53 42 0.0 0.0 0.00 0.00 0.00 91 1015.4
20260507103027 53 51 0.0 0.0 0.00 0.00 0.00 91 1015.0
20260507101526 53 51 0.0 0.0 0.00 0.00 0.00 91 1014.7
20260507100025 53 51 0.0 0.0 0.00 0.00 0.00 91 1014.4
20260507094523 53 51 0.0 0.0 0.00 0.00 0.00 91 1014.2
20260507093023 53 51 0.0 0.0 0.00 0.00 0.00 90 1013.9
20260507091521 53 51 0.0 0.0 0.00 0.00 0.00 90 1014.0
20260507090022 54 52 0.0 0.0 0.00 0.00 0.00 90 1014.1
20260507084518 54 52 1.0 0.0 0.00 0.00 0.00 90 1013.9
20260507083017 54 54 2.0 0.0 0.00 0.00 0.00 90 1013.5
20260507081520 55 35 1.0 0.0 0.00 0.00 0.00 89 1013.9
20260507080015 55 57 0.0 0.0 0.00 0.00 0.00 89 1013.9
20260507074514 55 57 1.0 0.0 0.00 0.00 0.00 89 1013.6
20260507073013 55 56 2.0 0.0 0.00 0.00 0.00 88 1013.2
20260507071511 55 56 3.0 0.0 0.00 0.00 0.00 87 1012.8
20260507070013 55 57 4.0 0.0 0.00 0.00 0.00 86 1012.8
20260507064508 56 56 6.0 0.0 0.00 0.00 0.00 86 1012.9
20260507063007 56 57 4.0 0.0 0.00 0.00 0.00 86 1013.2
20260507061503 56 61 4.0 0.0 0.00 0.00 0.00 86 1013.2
20260507060104 56 61 4.0 0.0 0.00 0.00 0.00 86 1013.0
20260507054559 57 57 3.0 0.0 0.00 0.00 0.00 86 1013.0
20260507053057 57 57 3.0 0.0 0.00 0.00 0.00 86 1013.0
20260507051555 57 58 4.0 0.0 0.00 0.00 0.00 85 1013.0
20260507050053 58 52 6.0 0.0 0.00 0.00 0.00 83 1013.0
20260507044605 58 53 6.0 0.0 0.00 0.00 0.00 83 1013.2
20260507043103 58 56 5.0 0.0 0.00 0.00 0.00 84 1013.2
20260507041556 58 53 4.0 0.0 0.00 0.00 0.00 85 1013.3
20260507040051 58 64 4.0 0.0 0.00 0.00 0.00 84 1013.4
20260507034553 58 53 4.0 0.0 0.00 0.00 0.00 85 1013.6
20260507033050 58 48 4.0 0.0 0.00 0.00 0.00 86 1013.6
20260507031550 58 46 3.0 0.0 0.00 0.00 0.00 87 1013.2
20260507030049 58 23 2.0 0.0 0.00 0.00 0.00 88 1012.8
20260507024553 58 28 2.0 0.0 0.00 0.00 0.00 88 1012.6
20260507023102 58 55 2.0 0.0 0.00 0.00 0.00 88 1012.3
20260507021548 58 61 3.0 0.0 0.00 0.00 0.00 88 1012.1
20260507020051 58 57 2.0 0.0 0.00 0.00 0.00 88 1011.6
20260507014545 58 59 3.0 0.0 0.00 0.00 0.00 88 1011.5
20260507013045 58 56 2.0 0.0 0.00 0.00 0.00 89 1011.0
20260507011547 59 57 4.0 0.0 0.00 0.00 0.00 88 1010.5
20260507010044 59 51 2.0 0.0 0.00 0.00 0.00 87 1010.4
20260507004544 60 5 1.0 0.0 0.00 0.00 0.00 86 1010.4
20260507003045 60 32 1.0 0.0 0.00 0.00 0.00 85 1010.4
20260507001607 60 15 0.0 0.0 0.00 0.00 0.00 83 1010.4
20260507000044 61 9 2.0 0.0 0.00 0.00 0.00 81 1010.0
20260506234541 61 360 1.0 0.0 0.00 0.00 0.00 79 1009.9
20260506233041 61 60 3.0 0.0 0.00 0.00 0.00 78 1009.3
20260506231543 61 355 1.0 0.0 0.00 0.00 0.00 79 1009.8
20260506230052 61 305 1.0 0.0 0.00 0.00 0.00 78 1009.8
20260506224540 61 294 2.0 0.0 0.00 0.00 0.00 77 1009.8
20260506223039 62 311 1.0 0.0 0.00 0.00 0.00 77 1009.8
20260506221544 61 320 1.0 0.0 0.00 0.00 0.00 78 1009.3
20260506220038 61 327 1.0 0.0 0.00 0.00 0.00 78 1009.2
20260506214538 61 346 2.0 0.0 0.00 0.00 0.00 77 1009.2
20260506213037 61 292 2.0 0.0 0.00 0.00 0.00 78 1009.2
20260506211537 61 5 1.0 0.0 0.00 0.00 0.00 78 1009.2
20260506210049 61 360 2.0 0.0 0.00 0.00 0.00 79 1009.2
20260506204540 60 304 3.0 0.0 0.00 0.00 0.00 80 1009.4
20260506203037 59 338 2.0 0.0 0.00 0.00 0.00 82 1009.7
20260506201535 59 323 2.0 0.0 0.00 0.00 0.00 82 1009.8
20260506200035 58 246 2.0 0.0 0.00 0.00 0.00 84 1010.2
20260506194535 57 272 2.0 0.0 0.00 0.00 0.00 85 1010.0
20260506193041 57 300 2.0 0.0 0.00 0.00 0.00 84 1010.2
20260506191533 57 263 2.0 0.0 0.00 0.00 0.00 85 1010.2
20260506190034 57 317 1.0 0.0 0.00 0.00 0.00 84 1010.7
20260506184537 57 55 2.0 0.0 0.00 0.00 0.00 84 1010.4
20260506183032 57 306 1.0 0.0 0.00 0.00 0.00 85 1009.9
20260506181539 57 20 1.0 0.0 0.00 0.00 0.00 85 1010.2
20260506180033 57 65 2.0 0.0 0.00 0.00 0.00 84 1010.3
20260506174535 58 19 3.0 0.0 0.00 0.00 0.00 85 1008.5
20260506173031 57 341 3.0 0.0 0.00 0.00 0.00 85 1008.3
20260506171533 57 34 3.0 0.0 0.00 0.00 0.00 85 1009.4
20260506170031 57 50 3.0 0.0 0.00 0.00 0.00 85 1009.5
20260506164544 57 335 2.0 0.0 0.00 0.00 0.00 86 1010.6
20260506163028 57 65 3.0 0.0 0.00 0.00 0.00 87 1009.6
20260506161527 55 348 3.0 0.0 0.00 0.00 0.00 88 1009.3
20260506160033 55 26 3.0 0.0 0.00 0.00 0.00 88 1009.6
20260506154526 54 29 2.0 0.0 0.00 0.00 0.00 88 1010.2
20260506153024 54 32 2.0 0.0 0.00 0.00 0.00 87 1010.0
20260506151522 55 321 2.0 0.0 0.00 0.00 0.00 86 1010.6
20260506150021 55 5 2.0 0.0 0.00 0.00 0.00 85 1010.9
20260506144525 55 257 2.0 0.0 0.00 0.00 0.00 84 1010.6
20260506143021 55 311 2.0 0.0 0.00 0.00 0.00 83 1010.2